Voltar ao catálogo

BLOCK DM-SL R/B

AtivoGTO
NORAD 38357·ROCKET BODY· XX

Lançado Jun 1, 2012 de Sea Launch Platform

Loading…

TLE

EnvelhecendoSource: Space-Track

Época: Sep 14, 2026, 09:42 UTC

1 38357U 12030B   26257.40463478 -.00000055  00000-0  46258-3 0  9999
2 38357   0.7206  24.8459 7094851  40.1869 350.3976  2.25337845117648

Acompanhe BLOCK DM-SL R/B em tempo real com AllMySat

Download on the App Store